Wind_Speed
52 51 50 49 48 48 47 46 45 46 45 45 44 44 44 43 43 42 42 41 40 39 39 38 38 38 38 38 38 38 38 39 40 41 41 41 42 42 43 43 44 43 43
51 51 51 51 50 50 49 48 47 47 47 47 47 46 46 46 46 45 44 43 43 42 42 41 41 40 40 40 40 41 41 41 42 43 44 43 42 42 43 44 44 44 43
51 51 51 52 52 51 50 50 49 49 49 49 49 49 49 48 48 47 46 45 45 44 44 43 43 42 42 42 42 43 43 43 44 45 46 45 44 43 42 42 43 43 44
50 50 50 52 52 52 51 50 50 50 50 50 51 51 50 50 49 48 48 47 47 46 46 45 45 44 44 44 44 44 45 45 45 45 45 46 46 46 44 42 42 43 43
49 50 50 52 52 52 52 52 51 51 51 51 51 51 51 51 51 50 50 49 48 48 48 47 46 46 45 45 45 46 46 46 46 46 46 46 46 46 45 44 43 42 43
48 49 50 51 51 51 51 51 52 52 52 51 51 51 51 51 51 51 50 50 50 50 49 48 48 47 47 47 47 47 47 47 47 47 47 46 46 45 45 44 43 43 42
45 46 47 49 50 51 51 51 51 52 52 52 51 51 51 51 51 51 51 51 51 51 50 49 49 49 49 48 48 48 48 48 47 47 46 46 45 45 44 43 43 42 41
43 44 45 46 48 49 50 50 51 51 51 52 52 51 51 51 51 51 51 51 51 51 50 50 50 49 49 48 48 49 48 48 47 46 46 45 45 44 43 42 41 41 41
40 42 43 44 46 47 48 49 50 50 50 51 51 51 51 51 51 51 51 51 51 51 50 50 49 49 49 49 49 48 48 47 46 45 45 44 43 43 42 41 41 40 40
38 40 41 42 43 45 46 47 48 49 49 49 49 50 50 50 50 51 51 51 50 50 49 49 49 48 48 48 48 48 47 46 45 44 43 42 42 41 40 40 40 39 39
37 38 40 41 42 43 45 46 47 47 48 48 48 49 49 49 50 50 49 49 49 49 48 48 48 47 47 46 46 45 45 45 43 42 42 41 40 39 39 39 38 38 38
35 36 37 38 39 41 43 44 45 46 46 47 47 48 48 49 49 48 48 48 48 47 46 46 46 45 44 44 44 44 43 42 42 41 40 39 39 38 38 37 37 37 36
34 34 35 37 38 39 40 42 43 44 45 46 46 46 47 47 47 47 47 47 47 47 46 46 45 45 44 44 43 42 41 41 40 39 39 38 37 37 37 36 36 36 35
34 34 35 35 37 38 39 40 41 42 43 43 44 44 44 45 45 45 46 46 46 46 45 44 44 44 44 43 42 41 39 39 38 38 37 36 36 36 35 35 34 34 34
33 33 33 34 35 36 37 38 39 40 41 41 42 42 42 42 43 43 44 44 44 44 44 43 42 41 40 40 39 38 38 37 37 36 36 35 35 34 33 33 33 33 33
32 33 33 33 34 34 35 36 37 37 38 39 39 40 40 40 41 41 41 41 40 41 41 41 40 39 39 38 38 37 36 36 35 34 34 33 33 32 32 32 32 32 32
31 32 33 33 33 33 34 34 34 35 36 36 37 37 38 38 38 38 38 38 38 38 38 37 37 37 36 36 36 35 34 34 33 33 32 32 31 31 31 31 31 31 32
30 32 33 33 33 33 33 33 33 33 34 34 35 35 35 36 36 37 37 36 36 35 35 35 35 34 34 34 33 33 33 32 32 31 31 30 30 30 30 30 31 31 31
30 30 31 32 32 32 32 32 32 32 32 32 32 32 33 33 33 33 34 34 34 33 33 33 32 32 32 32 32 31 31 31 31 30 30 29 30 30 30 30 30 31 32
28 28 29 30 30 30 30 30 30 30 30 30 31 31 31 31 31 31 31 31 31 31 31 31 31 30 30 30 30 30 30 30 29 29 29 29 29 29 30 30 31 32 33
26 27 27 28 28 28 29 29 29 29 29 29 29 29 30 30 30 30 30 29 29 29 29 29 30 30 30 29 29 29 29 29 28 28 28 29 29 29 30 31 32 33 34
26 26 26 26 27 27 27 28 28 28 28 28 28 28 28 29 29 29 29 29 29 29 29 29 29 29 29 28 28 28 28 28 28 28 28 29 29 30 31 32 33 33 35
25 26 26 26 26 27 27 27 27 28 28 28 28 28 28 28 28 28 28 28 28 28 28 28 28 27 27 27 27 27 27 27 28 28 29 29 30 31 32 32 33 34 35
25 26 26 26 27 27 27 27 27 27 28 28 28 28 28 28 27 27 27 27 27 27 27 27 27 27 27 27 27 28 28 28 29 29 30 30 31 31 32 33 34 35 36
24 25 26 26 27 27 27 27 28 28 28 27 27 27 27 26 26 27 27 27 27 27 27 27 27 27 27 28 28 28 29 29 30 30 30 31 31 32 33 34 35 36 37
24 24 24 25 26 26 26 26 27 27 27 27 27 27 27 27 27 27 28 28 27 27 27 27 28 28 29 29 29 30 30 30 30 31 32 32 33 33 34 35 36 37 38
Wind_Direction
231 232 233 235 236 238 240 241 242 243 244 246 246 248 250 253 255 257 259 262 265 268 270 273 275 277 279 281 283 284 286 288 289 291 293 295 296 297 298 299 299 299 299
232 234 235 236 238 239 240 242 243 245 246 247 248 249 251 252 254 256 259 261 264 267 269 272 274 277 278 280 281 283 285 287 289 291 292 293 295 296 297 298 298 298 298
233 234 235 236 238 240 242 243 244 245 247 248 248 250 251 253 254 255 257 260 263 266 269 271 273 275 277 279 281 282 284 287 289 290 292 293 294 294 294 295 296 296 296
234 235 236 237 238 239 241 242 244 245 247 248 249 250 252 252 253 255 257 260 263 266 268 270 272 274 276 278 280 281 284 286 288 289 290 292 293 294 295 294 293 294 295
234 234 236 237 238 240 241 243 245 246 248 249 250 251 251 252 253 254 256 259 262 265 267 269 271 273 275 277 279 281 283 285 287 288 290 291 292 293 294 294 293 293 293
234 235 236 237 239 241 242 243 245 247 248 249 250 251 252 253 254 255 258 260 262 264 266 268 270 272 274 275 278 280 282 284 286 288 289 290 291 292 292 293 293 293 292
235 235 237 238 240 241 242 243 245 247 248 249 251 252 254 255 256 258 259 261 263 264 266 267 269 271 273 275 277 279 281 284 285 287 288 289 290 290 291 292 292 292 292
238 237 238 238 240 241 242 245 247 248 249 251 252 253 255 257 258 259 260 262 263 265 266 268 269 271 273 274 277 279 281 283 285 286 287 287 288 289 290 290 291 291 292
241 241 241 241 242 243 244 246 248 250 251 252 254 255 257 258 259 259 261 262 264 265 267 268 269 271 272 274 276 278 280 282 283 284 286 286 287 288 288 289 290 291 291
244 245 245 245 245 245 247 248 249 251 253 254 255 256 257 258 259 260 261 263 264 266 267 268 270 272 274 275 277 278 280 281 282 284 285 285 286 287 288 289 290 290 291
245 246 247 248 247 248 248 249 251 252 254 256 257 257 258 259 261 262 262 264 265 266 268 269 271 272 274 275 277 279 280 280 281 282 283 284 285 286 287 288 289 290 291
247 248 248 249 250 250 250 251 252 253 255 256 257 258 259 260 261 262 263 264 265 266 267 269 270 271 273 275 276 278 279 279 280 281 282 283 283 284 286 287 289 290 290
248 250 251 251 252 252 252 253 253 254 256 257 258 259 260 261 262 263 264 264 265 266 268 269 269 271 273 274 276 277 278 278 279 280 281 281 282 284 285 287 288 289 290
250 251 253 254 255 255 256 256 256 256 257 259 260 260 261 262 262 263 264 264 265 266 267 269 270 270 271 273 274 275 276 277 278 279 280 281 282 283 285 286 288 289 290
251 253 254 256 256 257 258 258 259 259 260 261 261 262 262 263 264 264 265 265 266 266 267 268 269 270 270 271 273 274 275 277 277 278 279 280 282 283 284 286 288 289 291
252 254 255 256 257 257 258 259 260 261 262 262 263 263 263 264 264 265 265 265 266 266 267 267 267 268 269 270 272 273 274 274 275 276 278 279 280 283 285 286 288 290 291
253 254 255 256 257 257 258 260 260 261 262 262 263 263 263 264 264 264 265 265 265 266 266 266 266 266 267 268 269 271 272 273 274 275 277 279 280 283 284 286 288 290 292
253 253 254 255 256 257 259 259 260 261 262 263 263 264 264 264 264 263 264 264 264 264 264 264 265 266 267 268 269 269 271 272 273 275 277 278 280 283 285 287 289 291 293
254 254 254 255 256 258 258 258 259 261 262 262 263 264 264 264 263 263 263 263 263 263 263 264 265 265 265 266 267 269 270 271 273 274 276 278 281 283 285 287 289 291 293
254 254 254 255 256 256 257 258 259 259 261 262 263 263 263 264 264 263 263 262 262 262 262 263 263 264 265 266 267 268 270 271 272 274 277 280 282 284 286 288 290 292 295
253 253 254 254 254 255 256 257 257 258 260 262 263 263 263 263 263 263 262 261 261 261 262 262 263 263 265 266 267 268 269 270 272 275 278 281 283 285 287 289 291 293 296
252 252 252 253 254 255 256 257 257 258 260 261 262 263 263 263 263 263 262 261 261 261 261 262 263 263 264 266 266 267 269 271 273 276 279 282 284 286 288 291 292 294 296
251 251 251 252 253 255 256 257 258 259 259 261 262 263 263 264 263 263 262 261 261 261 261 262 262 263 264 265 266 268 269 272 275 278 280 283 285 287 290 292 293 295 297
251 251 251 251 252 254 256 257 259 259 261 262 262 262 263 263 263 263 262 261 261 261 261 261 262 262 263 265 267 269 271 274 276 279 282 284 286 288 290 292 294 296 298
252 252 252 252 253 254 256 258 258 260 260 261 262 262 263 262 261 261 261 262 261 261 262 262 263 263 265 266 269 271 273 275 278 280 283 285 287 289 291 292 294 296 299
253 253 253 253 254 255 257 258 259 259 259 260 261 262 262 262 262 262 261 261 261 261 262 263 264 265 266 267 270 272 274 276 279 281 283 285 287 289 291 293 295 297 299
Height
5788 5793 5798 5802 5806 5810 5813 5817 5819 5822 5824 5826 5828 5830 5832 5834 5835 5836 5836 5837 5838 5838 5838 5838 5838 5837 5836 5835 5834 5832 5831 5829 5826 5824 5822 5819 5815 5812 5808 5804 5801 5797 5794
5780 5785 5789 5794 5798 5801 5805 5808 5811 5814 5816 5818 5820 5822 5824 5825 5826 5827 5828 5829 5830 5830 5830 5830 5830 5829 5828 5827 5826 5824 5823 5821 5818 5816 5813 5811 5809 5805 5800 5795 5792 5788 5785
5772 5776 5781 5785 5789 5793 5796 5799 5802 5805 5807 5809 5811 5813 5814 5816 5817 5818 5819 5820 5821 5821 5822 5822 5821 5821 5820 5819 5817 5816 5814 5813 5810 5807 5804 5802 5800 5797 5794 5788 5783 5779 5776
5763 5768 5772 5776 5780 5783 5787 5790 5793 5795 5798 5800 5802 5804 5805 5807 5808 5809 5810 5811 5812 5812 5813 5813 5812 5812 5811 5810 5809 5807 5805 5803 5801 5798 5795 5792 5789 5786 5785 5781 5776 5771 5767
5754 5758 5762 5766 5770 5773 5777 5780 5783 5786 5788 5790 5792 5794 5796 5797 5798 5800 5801 5802 5802 5803 5803 5803 5803 5802 5802 5801 5799 5798 5796 5794 5791 5789 5786 5783 5780 5776 5774 5771 5768 5763 5759
5744 5748 5752 5756 5760 5764 5767 5770 5773 5776 5778 5780 5782 5784 5786 5787 5788 5789 5790 5791 5792 5793 5793 5793 5793 5792 5792 5791 5790 5788 5786 5784 5782 5779 5776 5774 5771 5767 5764 5761 5757 5754 5750
5735 5739 5743 5747 5750 5754 5757 5760 5763 5766 5768 5770 5772 5774 5776 5777 5778 5779 5780 5781 5782 5783 5783 5783 5783 5782 5781 5780 5779 5778 5776 5774 5772 5769 5766 5763 5760 5757 5754 5751 5747 5744 5741
5727 5730 5734 5737 5740 5744 5747 5750 5753 5755 5758 5760 5762 5763 5765 5767 5768 5769 5770 5771 5771 5772 5772 5772 5772 5771 5770 5770 5768 5767 5765 5763 5761 5759 5756 5753 5750 5747 5744 5741 5738 5734 5731
5719 5721 5724 5728 5731 5734 5737 5740 5743 5745 5747 5749 5751 5753 5754 5756 5757 5758 5759 5760 5760 5761 5761 5761 5761 5760 5759 5758 5757 5756 5754 5752 5750 5748 5746 5743 5740 5737 5734 5731 5728 5725 5722
5711 5713 5716 5719 5722 5725 5727 5730 5733 5735 5737 5739 5740 5742 5743 5745 5746 5747 5748 5748 5749 5749 5749 5749 5749 5749 5748 5747 5746 5745 5743 5741 5740 5737 5735 5733 5730 5727 5724 5721 5718 5715 5712
5703 5705 5708 5710 5713 5715 5718 5720 5723 5725 5727 5728 5730 5731 5732 5733 5734 5735 5736 5737 5737 5738 5738 5738 5738 5737 5737 5736 5735 5734 5732 5731 5729 5727 5725 5722 5720 5717 5714 5712 5709 5706 5703
5695 5697 5699 5702 5704 5706 5708 5711 5712 5714 5716 5718 5719 5720 5721 5722 5723 5724 5725 5725 5726 5726 5726 5726 5726 5726 5725 5725 5724 5723 5721 5720 5718 5716 5714 5712 5710 5707 5705 5702 5699 5696 5694
5687 5689 5691 5693 5695 5697 5699 5700 5702 5704 5706 5707 5708 5709 5710 5711 5712 5713 5713 5714 5714 5715 5715 5715 5715 5715 5714 5714 5713 5712 5710 5709 5707 5706 5704 5702 5700 5698 5695 5693 5690 5687 5685
5679 5681 5682 5684 5686 5688 5689 5691 5692 5694 5695 5696 5697 5698 5699 5700 5701 5701 5702 5702 5703 5703 5703 5703 5703 5703 5703 5703 5702 5701 5700 5698 5697 5696 5694 5692 5690 5688 5686 5684 5681 5679 5676
5671 5672 5674 5675 5677 5678 5680 5681 5682 5683 5685 5686 5686 5687 5688 5689 5689 5690 5690 5691 5691 5692 5692 5692 5692 5692 5692 5691 5691 5690 5689 5688 5687 5686 5684 5683 5681 5679 5677 5675 5672 5670 5667
5663 5664 5666 5667 5668 5669 5670 5672 5673 5674 5675 5675 5676 5677 5677 5678 5678 5679 5679 5680 5680 5680 5681 5681 5681 5681 5681 5681 5681 5680 5679 5678 5677 5676 5675 5673 5672 5670 5668 5666 5663 5661 5658
5654 5656 5657 5658 5659 5661 5662 5663 5664 5665 5665 5666 5666 5667 5667 5668 5668 5668 5669 5669 5670 5670 5670 5670 5671 5671 5671 5671 5671 5670 5670 5669 5668 5667 5666 5664 5663 5661 5659 5657 5655 5652 5650
5646 5647 5648 5649 5651 5652 5653 5654 5655 5655 5656 5656 5657 5657 5657 5658 5658 5658 5659 5659 5660 5660 5660 5661 5661 5661 5661 5661 5661 5661 5660 5660 5659 5658 5657 5656 5654 5652 5650 5648 5646 5644 5641
5637 5638 5640 5641 5642 5643 5644 5645 5646 5646 5647 5647 5647 5648 5648 5648 5648 5649 5649 5650 5650 5651 5651 5651 5652 5652 5652 5652 5652 5652 5651 5651 5650 5649 5648 5647 5645 5644 5642 5640 5638 5635 5632
5629 5630 5631 5633 5634 5635 5635 5636 5637 5638 5638 5638 5639 5639 5639 5639 5640 5640 5640 5641 5641 5642 5642 5643 5643 5643 5643 5643 5643 5643 5643 5642 5642 5641 5640 5638 5637 5635 5633 5631 5629 5626 5624
5621 5622 5623 5625 5626 5626 5627 5628 5629 5629 5630 5630 5630 5631 5631 5631 5631 5632 5632 5632 5633 5633 5634 5634 5635 5635 5635 5635 5635 5635 5634 5634 5633 5632 5631 5630 5628 5627 5625 5622 5620 5617 5614
5613 5614 5616 5617 5618 5619 5619 5620 5621 5621 5622 5622 5622 5623 5623 5623 5623 5624 5624 5624 5625 5625 5626 5626 5626 5627 5627 5627 5626 5626 5626 5626 5625 5624 5623 5621 5620 5618 5616 5613 5611 5608 5605
5605 5606 5608 5609 5610 5611 5612 5612 5613 5614 5614 5614 5615 5615 5615 5615 5615 5616 5616 5616 5617 5617 5618 5618 5618 5619 5619 5618 5618 5618 5618 5617 5617 5616 5614 5613 5611 5609 5607 5604 5601 5598 5595
5597 5598 5600 5601 5602 5603 5604 5604 5605 5606 5606 5606 5607 5607 5607 5607 5607 5608 5608 5608 5609 5609 5610 5610 5610 5611 5611 5611 5610 5610 5609 5609 5608 5607 5605 5604 5602 5600 5597 5595 5592 5588 5585
5590 5590 5592 5593 5594 5595 5596 5596 5597 5598 5598 5598 5599 5599 5599 5599 5600 5600 5600 5601 5601 5602 5602 5602 5603 5603 5603 5603 5602 5602 5601 5600 5599 5598 5596 5595 5593 5591 5588 5585 5582 5579 5575
5582 5583 5584 5585 5586 5587 5588 5588 5589 5589 5590 5590 5591 5591 5592 5592 5592 5592 5593 5593 5593 5594 5594 5594 5594 5594 5594 5594 5593 5593 5592 5591 5590 5589 5587 5585 5583 5581 5578 5575 5572 5569 5565